NOAA 16 DEB, 42351

Orbit data source: Space-Track

NOAA 16 DEB, 42351 is space debris in SSO originally from a launch on Thu, 21 Sep 2000 UTC launched from the Air Force Western Test Range (AFWTR). Debris objects in space refer to the collection of defunct objects orbiting the Earth. Examples of debris include non-operational satellites, rocket bodies, and fragments generated from explosions, collisions, or faulty payload assembly.

Loading next visibility...
Identifier
42351, 2000-055QT
Orbit
SSO
Country
Flag of USUS
Related business
Manufacturer
Unknown
Mission
Spacecraft
Bus & Motor
Unknown
Mass
Unknown
Launch date (UTC)
2000-09-21 (25 years ago)
Launch vehicle
Unknown
Launch site
Air Force Western Test Range (AFWTR)
Object type
Payload
Rocket body
Debris
Shape & HBR
Unknown shape, 0.1 m
Radar Cross Section
Small (<0.1 m²)

Expand to show TLE details & history
Last TLE update: 3 days ago

TLE from 3 days ago
0 NOAA 16 DEB
1 42351U 00055QT  25297.79944544  .00016033  00000-0  35684-2 0  9997
2 42351  98.6903  59.7060 0032925 302.4670  57.3345 14.56677369499106
Epoch: 2025-10-24T19:11Z
TLE epoch observation values (Epoch: 2025-10-24T19:11:12.086Z)
Latitude
0.00003°
Longitude
98.46648°
Altitude
694.355 km
Speed
7.516 km/s
True Right ascension
03h 58m 49s
True Declination
0° 00' 00"
Sunlit
Object was in full shadow at epoch
Visualization orbit readout
Latitude
Unknown
Longitude
Unknown
Altitude
Unknown
Speed
Unknown
Apparent Right ascension
Unknown
Apparent Declination
Unknown
Sunlit
N/A
Visualization observer readout
Local Sidereal Time
13:18:07
Azimuth
Unknown
Elevation
Unknown
Doppler factor
Unknown
Orbital elements
Apogee altitude
724.34 km
Perigee altitude
677.723 km
Semi-major axis
7,079.169 km
Eccentricity
0.00329
Inclination
98.6903°
RAAN
59.706°
Arg. of periapsis
302.467°
True anomaly
57.65282°
Mean anomaly
57.3345°
Eccentric anomaly
57.49359°
Mean motion
3.64393 °/min
Orbital period
98.79 mins
BSTAR
0.0035684
Loading maneuver chart data...
Computing Atmospheric mass density...
Loading historical data...
Loading historical data...
Loading historical data...
Loading historical data...
Loading historical data...
Loading historical data...
Loading historical data...

Documentation

Showing up to 5 results
|